�������l�o���
Date,Time,MP-1(��Sv/h),MP-2(��Sv/h),MP-3(��Sv/h),MP-4(��Sv/h),MP-5(��Sv/h),MP-6(��Sv/h),MP-7(��Sv/h),MP-8(��Sv/h),����,����(m/s),���J
2017/09/12,00:00,0.936,1.483,0.971,1.770,1.228,0.515,0.937,0.866,��쓌,8.9,�L
2017/09/12,00:10,0.934,1.477,0.968,1.765,1.224,0.513,0.936,0.861,��쓌,9.8,�L
2017/09/12,00:20,0.931,1.473,0.967,1.760,1.218,0.512,0.936,0.862,��,8.1,�L
2017/09/12,00:30,0.930,1.469,0.964,1.758,1.216,0.513,0.934,0.860,��,8.7,�L
2017/09/12,00:40,0.930,1.468,0.961,1.753,1.214,0.511,0.934,0.859,��쓌,10.0,�L
2017/09/12,00:50,0.929,1.464,0.962,1.750,1.213,0.510,0.932,0.860,��,9.8,�L
2017/09/12,01:00,0.927,1.466,0.961,1.748,1.211,0.510,0.932,0.860,��,8.9,�L
2017/09/12,01:10,0.926,1.464,0.961,1.747,1.210,0.510,0.931,0.860,��,9.7,�L
2017/09/12,01:20,0.925,1.459,0.958,1.741,1.207,0.512,0.932,0.857,��,10.0,�L
2017/09/12,01:30,0.925,1.462,0.957,1.742,1.207,0.510,0.930,0.858,��,10.2,�L
2017/09/12,01:40,0.926,1.459,0.958,1.739,1.205,0.512,0.931,0.856,��,9.8,�L
2017/09/12,01:50,0.923,1.458,0.959,1.743,1.206,0.511,0.930,0.858,��,10.2,�L
2017/09/12,02:00,0.925,1.461,0.956,1.739,1.206,0.509,0.930,0.858,��,9.1,�L
2017/09/12,02:10,0.923,1.454,0.956,1.738,1.203,0.509,0.928,0.858,��,8.1,�L
2017/09/12,02:20,0.923,1.449,0.953,1.734,1.197,0.510,0.929,0.855,��,10.5,�L
2017/09/12,02:30,0.917,1.447,0.953,1.733,1.196,0.510,0.928,0.856,��,10.2,�L
2017/09/12,02:40,0.919,1.448,0.953,1.728,1.195,0.510,0.928,0.855,��,9.7,�L
2017/09/12,02:50,0.915,1.442,0.949,1.724,1.191,0.509,0.924,0.854,��,10.8,�L
2017/09/12,03:00,0.915,1.437,0.948,1.719,1.185,0.508,0.923,0.853,-,CALM,�L
2017/09/12,03:10,0.911,1.433,0.946,1.716,1.185,0.506,0.924,0.852,��쓌,16.3,�L
2017/09/12,03:20,0.913,1.437,0.946,1.716,1.187,0.507,0.923,0.851,��쓌,13.3,�L
2017/09/12,03:30,0.914,1.442,0.948,1.715,1.189,0.507,0.925,0.852,��쓌,13.0,�L
2017/09/12,03:40,0.916,1.439,0.948,1.717,1.192,0.507,0.925,0.852,��,12.7,�L
2017/09/12,03:50,0.914,1.439,0.950,1.718,1.192,0.508,0.923,0.855,��쓌,12.2,�L
2017/09/12,04:00,0.915,1.442,0.946,1.721,1.192,0.506,0.925,0.852,��,12.4,�L
2017/09/12,04:10,0.915,1.442,0.946,1.721,1.191,0.508,0.924,0.854,��쓌,12.5,�L
2017/09/12,04:20,0.915,1.442,0.945,1.724,1.191,0.507,0.925,0.852,��,10.5,�L
2017/09/12,04:30,0.916,1.443,0.948,1.724,1.195,0.507,0.925,0.855,��,10.2,�L
2017/09/12,04:40,0.916,1.445,0.944,1.725,1.194,0.508,0.924,0.854,��,11.6,��
2017/09/12,04:50,0.914,1.444,0.947,1.724,1.191,0.507,0.926,0.853,��,10.5,��
2017/09/12,05:00,0.916,1.444,0.948,1.725,1.194,0.506,0.924,0.856,��,10.5,��
2017/09/12,05:10,0.917,1.445,0.949,1.728,1.193,0.506,0.925,0.854,��,9.9,��
2017/09/12,05:20,0.917,1.446,0.949,1.729,1.193,0.506,0.927,0.854,��,10.3,��
2017/09/12,05:30,0.915,1.444,0.947,1.728,1.193,0.505,0.926,0.853,��,10.9,��
2017/09/12,05:40,0.917,1.448,0.949,1.730,1.193,0.507,0.927,0.855,��,11.0,��
2017/09/12,05:50,0.917,1.444,0.951,1.728,1.197,0.506,0.925,0.856,��,10.3,��
2017/09/12,06:00,0.916,1.448,0.953,1.732,1.192,0.506,0.926,0.855,��,9.5,��
2017/09/12,06:10,0.917,1.444,0.952,1.733,1.193,0.507,0.927,0.857,��,9.0,��
2017/09/12,06:20,0.917,1.446,0.949,1.731,1.196,0.507,0.925,0.857,��,8.8,��
2017/09/12,06:30,0.916,1.445,0.950,1.731,1.197,0.507,0.926,0.857,��,9.0,��
2017/09/12,06:40,0.917,1.449,0.950,1.732,1.199,0.507,0.928,0.857,��,9.2,��
2017/09/12,06:50,0.917,1.449,0.951,1.730,1.199,0.507,0.927,0.857,��,10.0,��
2017/09/12,07:00,0.916,1.449,0.953,1.729,1.197,0.507,0.929,0.859,��,10.3,��
2017/09/12,07:10,0.917,1.448,0.952,1.735,1.198,0.508,0.928,0.858,��,10.0,��
2017/09/12,07:20,0.919,1.450,0.952,1.734,1.195,0.508,0.928,0.857,��,10.7,��
2017/09/12,07:30,0.917,1.450,0.953,1.736,1.200,0.508,0.927,0.859,��,9.6,��
2017/09/12,07:40,0.918,1.447,0.953,1.734,1.200,0.508,0.931,0.857,��,10.5,��
2017/09/12,07:50,0.917,1.449,0.954,1.736,1.198,0.510,0.928,0.858,��,9.4,��
2017/09/12,08:00,0.920,1.450,0.953,1.736,1.201,0.508,0.928,0.858,��,9.9,��
2017/09/12,08:10,0.919,1.451,0.952,1.732,1.201,0.507,0.929,0.858,��,10.3,��
2017/09/12,08:20,0.920,1.451,0.953,1.733,1.201,0.509,0.930,0.859,��,10.5,�L
2017/09/12,08:30,0.920,1.451,0.952,1.736,1.201,0.507,0.930,0.859,��,8.8,�L
2017/09/12,08:40,0.920,1.450,0.952,1.735,1.201,0.507,0.929,0.858,��,9.0,�L
2017/09/12,08:50,0.921,1.448,0.953,1.735,1.202,0.510,0.930,0.858,��,9.5,�L
2017/09/12,09:00,0.921,1.453,0.953,1.735,1.199,0.508,0.931,0.860,��,8.7,�L
2017/09/12,09:10,0.922,1.453,0.954,1.738,1.202,0.510,0.931,0.859,��,8.9,�L
2017/09/12,09:20,0.923,1.452,0.953,1.737,1.200,0.509,0.928,0.858,��,9.2,��
2017/09/12,09:30,0.922,1.452,0.955,1.738,1.204,0.508,0.928,0.859,��,7.2,��
2017/09/12,09:40,0.922,1.454,0.955,1.738,1.204,0.508,0.929,0.859,��,7.9,�L
2017/09/12,09:50,0.921,1.451,0.954,1.741,1.201,0.509,0.930,0.859,��,6.7,�L
2017/09/12,10:00,0.923,1.454,0.953,1.742,1.202,0.509,0.931,0.860,��,7.0,�L
2017/09/12,10:10,0.923,1.452,0.956,1.737,1.204,0.512,0.930,0.859,��,6.1,�L
2017/09/12,10:20,0.924,1.454,0.957,1.738,1.206,0.512,0.929,0.859,��,8.0,�L
2017/09/12,10:30,0.926,1.455,0.959,1.742,1.206,0.512,0.932,0.861,��,7.3,�L
2017/09/12,10:40,0.923,1.453,0.958,1.741,1.207,0.512,0.930,0.862,��,5.4,�L
2017/09/12,10:50,0.923,1.454,0.958,1.742,1.204,0.511,0.932,0.859,��,4.9,�L
2017/09/12,11:00,0.922,1.454,0.957,1.738,1.206,0.511,0.931,0.862,��,4.5,�L
2017/09/12,11:10,0.924,1.451,0.959,1.738,1.206,0.512,0.932,0.859,��쐼,6.3,��
2017/09/12,11:20,0.922,1.452,0.960,1.740,1.205,0.511,0.931,0.860,��쐼,6.1,��
2017/09/12,11:30,0.922,1.454,0.960,1.742,1.205,0.511,0.931,0.860,��쐼,5.9,�L
2017/09/12,11:40,0.922,1.456,0.955,1.741,1.205,0.513,0.931,0.859,��쐼,6.1,��
2017/09/12,11:50,0.922,1.454,0.958,1.741,1.207,0.511,0.931,0.860,��쐼,6.2,��
2017/09/12,12:00,0.922,1.456,0.958,1.740,1.207,0.511,0.931,0.862,��쐼,6.6,��
2017/09/12,12:10,0.926,1.457,0.956,1.741,1.204,0.511,0.931,0.861,��쐼,7.3,��
2017/09/12,12:20,0.926,1.457,0.958,1.741,1.204,0.509,0.929,0.859,��쐼,7.2,��
2017/09/12,12:30,0.924,1.458,0.957,1.741,1.205,0.510,0.930,0.858,��쐼,6.0,��
2017/09/12,12:40,0.923,1.458,0.957,1.741,1.206,0.509,0.933,0.859,�쐼,6.8,��
2017/09/12,12:50,0.922,1.458,0.957,1.741,1.208,0.511,0.930,0.859,�쐼,7.3,��
2017/09/12,13:00,0.923,1.458,0.957,1.742,1.205,0.510,0.935,0.860,��쐼,5.6,��
2017/09/12,13:10,0.924,1.457,0.957,1.743,1.206,0.512,0.931,0.861,��쐼,6.1,��
2017/09/12,13:20,0.924,1.458,0.958,1.741,1.210,0.510,0.933,0.860,��쐼,7.1,��
2017/09/12,13:30,0.925,1.456,0.957,1.740,1.206,0.511,0.931,0.861,�쐼,7.1,��
2017/09/12,13:40,0.926,1.456,0.957,1.741,1.208,0.513,0.932,0.859,��쐼,6.7,��
2017/09/12,13:50,0.924,1.460,0.957,1.741,1.207,0.510,0.930,0.861,��쐼,5.0,�L
2017/09/12,14:00,0.925,1.458,0.959,1.743,1.209,0.512,0.932,0.859,��쐼,4.5,�L
2017/09/12,14:10,0.926,1.461,0.959,1.741,1.207,0.513,0.932,0.860,��쐼,4.5,��
2017/09/12,14:20,0.924,1.459,0.958,1.741,1.209,0.511,0.933,0.860,��쓌,3.4,��
2017/09/12,14:30,0.924,1.458,0.959,1.740,1.207,0.512,0.933,0.859,��,3.1,��
2017/09/12,14:40,0.925,1.459,0.957,1.745,1.210,0.512,0.932,0.859,��쓌,3.6,��
2017/09/12,14:50,0.924,1.457,0.959,1.742,1.207,0.512,0.932,0.861,��,4.2,��
2017/09/12,15:00,0.925,1.459,0.958,1.744,1.207,0.511,0.932,0.862,��,5.0,��
2017/09/12,15:10,0.924,1.460,0.957,1.744,1.212,0.512,0.933,0.861,��,4.8,��
2017/09/12,15:20,0.924,1.461,0.958,1.742,1.213,0.512,0.933,0.860,��쐼,4.7,��
2017/09/12,15:30,0.925,1.463,0.959,1.743,1.209,0.513,0.932,0.861,��쐼,4.2,��
2017/09/12,15:40,0.925,1.461,0.959,1.747,1.211,0.512,0.935,0.861,��,4.1,��
2017/09/12,15:50,0.923,1.461,0.959,1.743,1.210,0.512,0.934,0.861,�쐼,3.5,��
2017/09/12,16:00,0.927,1.460,0.960,1.744,1.212,0.512,0.932,0.862,�쐼,4.3,��
2017/09/12,16:10,0.926,1.463,0.960,1.745,1.211,0.514,0.934,0.860,��,4.6,��
2017/09/12,16:20,0.926,1.459,0.960,1.742,1.213,0.514,0.932,0.861,��,5.6,��
2017/09/12,16:30,0.925,1.463,0.960,1.744,1.213,0.514,0.935,0.862,��,6.6,��
2017/09/12,16:40,0.927,1.464,0.961,1.747,1.212,0.514,0.934,0.861,��,5.9,��
2017/09/12,16:50,0.928,1.462,0.961,1.747,1.214,0.511,0.935,0.862,��,7.5,��
2017/09/12,17:00,0.928,1.464,0.961,1.747,1.213,0.514,0.934,0.863,��,4.3,��
2017/09/12,17:10,0.927,1.464,0.961,1.751,1.213,0.511,0.935,0.862,��,6.5,��
2017/09/12,17:20,0.930,1.467,0.963,1.749,1.214,0.512,0.936,0.863,���k��,8.5,��
2017/09/12,17:30,0.927,1.467,0.962,1.749,1.214,0.514,0.936,0.864,��,5.1,��
2017/09/12,17:40,0.925,1.466,0.962,1.750,1.214,0.514,0.935,0.862,���k��,5.3,��
2017/09/12,17:50,0.927,1.466,0.961,1.749,1.213,0.516,0.936,0.865,���k��,5.2,��
2017/09/12,18:00,0.927,1.469,0.962,1.753,1.214,0.513,0.935,0.865,�k��,3.6,��
2017/09/12,18:10,0.928,1.463,0.964,1.751,1.213,0.516,0.935,0.863,���k��,5.8,��
2017/09/12,18:20,0.927,1.467,0.964,1.751,1.215,0.515,0.935,0.864,���k��,7.1,��
2017/09/12,18:30,0.929,1.470,0.962,1.752,1.216,0.515,0.934,0.863,�k��,6.4,��
2017/09/12,18:40,0.930,1.469,0.962,1.752,1.214,0.515,0.935,0.865,�k��,5.8,��
2017/09/12,18:50,0.928,1.466,0.964,1.755,1.215,0.516,0.936,0.865,�k��,6.1,��
2017/09/12,19:00,0.926,1.467,0.962,1.752,1.214,0.513,0.936,0.864,�k��,8.1,��
2017/09/12,19:10,0.928,1.469,0.961,1.753,1.214,0.515,0.937,0.865,�k��,6.2,��
2017/09/12,19:20,0.927,1.468,0.965,1.752,1.214,0.513,0.936,0.866,�k��,7.5,��
2017/09/12,19:30,0.926,1.466,0.964,1.752,1.215,0.513,0.936,0.864,�k��,7.5,��
2017/09/12,19:40,0.928,1.467,0.962,1.754,1.213,0.513,0.935,0.864,�k��,7.5,��
2017/09/12,19:50,0.929,1.469,0.963,1.752,1.215,0.512,0.935,0.864,�k��,9.5,��
2017/09/12,20:00,0.930,1.467,0.964,1.755,1.215,0.513,0.936,0.865,�k��,7.9,��
2017/09/12,20:10,0.927,1.470,0.961,1.753,1.214,0.515,0.937,0.863,�k��,6.6,��
2017/09/12,20:20,0.928,1.469,0.962,1.755,1.215,0.512,0.937,0.865,���k��,6.1,��
2017/09/12,20:30,0.928,1.468,0.964,1.757,1.214,0.514,0.936,0.864,�k��,4.7,��
2017/09/12,20:40,0.929,1.468,0.963,1.755,1.216,0.513,0.935,0.863,�k��,4.7,��
2017/09/12,20:50,0.927,1.467,0.962,1.757,1.215,0.513,0.936,0.864,�k�k��,3.7,��
2017/09/12,21:00,0.927,1.468,0.964,1.753,1.213,0.511,0.937,0.865,�k�k��,1.7,��
2017/09/12,21:10,0.929,1.469,0.963,1.758,1.213,0.511,0.937,0.864,�k��,2.5,��
2017/09/12,21:20,0.928,1.470,0.963,1.753,1.218,0.512,0.935,0.863,�k��,2.3,��
2017/09/12,21:30,0.929,1.468,0.962,1.755,1.218,0.511,0.936,0.865,�k�k��,1.9,��
2017/09/12,21:40,0.930,1.470,0.962,1.756,1.216,0.510,0.935,0.865,�k��,2.0,��
2017/09/12,21:50,0.928,1.468,0.964,1.754,1.217,0.511,0.936,0.863,�k�k��,1.7,��
2017/09/12,22:00,0.927,1.468,0.961,1.754,1.217,0.514,0.937,0.866,���k��,5.2,��
2017/09/12,22:10,0.927,1.469,0.964,1.754,1.217,0.511,0.937,0.865,���k��,7.9,��
2017/09/12,22:20,0.928,1.468,0.964,1.756,1.216,0.511,0.935,0.864,��,8.8,��
2017/09/12,22:30,0.929,1.468,0.965,1.757,1.216,0.513,0.935,0.864,��,7.3,��
2017/09/12,22:40,0.928,1.469,0.963,1.757,1.216,0.511,0.937,0.863,���k��,6.3,��
2017/09/12,22:50,0.927,1.468,0.965,1.757,1.217,0.512,0.936,0.864,�k��,3.9,��
2017/09/12,23:00,0.928,1.470,0.962,1.756,1.217,0.511,0.937,0.864,���k��,3.3,��
2017/09/12,23:10,0.928,1.470,0.965,1.757,1.216,0.513,0.937,0.864,�k�k��,0.9,��
2017/09/12,23:20,0.927,1.469,0.963,1.756,1.216,0.511,0.938,0.863,�k�k��,0.9,��
2017/09/12,23:30,0.929,1.468,0.962,1.758,1.218,0.512,0.938,0.863,�k��,6.2,��
2017/09/12,23:40,0.929,1.471,0.962,1.757,1.217,0.511,0.939,0.865,���k��,4.7,��
2017/09/12,23:50,0.930,1.467,0.962,1.759,1.216,0.512,0.938,0.865,�k��,8.6,��
